Risoul, France 16 day weather forecast

Slopes altitude range 1660 m - 2750m

Number of lifts: 52 Pistes: 185km

In some cases the lift and piste totals shown are for the ski domain (e.g. Three Valleys) rather than individual resort (e.g. Courchevel)

Overview

The 16 day weather forecast is fully updated 4 times every day.

    • Thu 21 FEB 2019
    • Thu 21
    • 0C 6C
    • Fri 22 FEB 2019
    • Fri 22
    • -1C 9C
    • Sat 23 FEB 2019
    • Sat 23
    • 0C 7C
    • Sun 24 FEB 2019
    • Sun 24
    • 0C 7C
    • Mon 25 FEB 2019
    • Mon 25
    • 2C 7C
    • Tue 26 FEB 2019
    • Tue 26
    • 1C 10C
    • Wed 27 FEB 2019
    • Wed 27
    • 3C 12C
    • Thu 28 FEB 2019
    • Thu 28
    • 2C 11C
    • Fri 01 MAR 2019
    • Fri 01
    • 1C 9C
    • Sat 02 MAR 2019
    • Sat 02
    • 0C 8C
    • Sun 03 MAR 2019
    • Sun 03
    • 2C 6C
    • Mon 04 MAR 2019
    • Mon 04
    • 2C 10C
    • Tue 05 MAR 2019
    • Tue 05
    • 1C 5C
    • Wed 06 MAR 2019
    • Wed 06
    • -1C 5C
    • Thu 07 MAR 2019
    • Thu 07
    • -4C 1C
    • Fri 08 MAR 2019
    • Fri 08
    • -10C -2C

Date:

Time Type 0°C level Temp Chill Snow Cloud Speed Gust Dir Press
18:00 2149m 6°C 6_3 0cm 10% 3mph 4mph 1028mB
21:00 1558m -1°C -1_6 0cm 4% 6mph 7mph 1028mB
0:00 1494m -2°C -2_7 0cm 2% 7mph 8mph 1028mB
3:00 1482m -2°C -2_8 0cm 0% 8mph 9mph 1027mB
6:00 1556m -2°C -2_8 0cm 9% 8mph 8mph 1027mB
9:00 3189m -1°C -1_5 0cm 25% 5mph 5mph 1027mB
12:00 3231m 9°C 9_2 0cm 12% 2mph 2mph 1025mB
15:00 3126m 9°C 9_3 0cm 3% 3mph 4mph 1025mB
18:00 3228m 9°C 9_6 0cm 3% 6mph 7mph 1026mB
21:00 3279m 1°C 1_7 0cm 0% 7mph 8mph 1028mB
0:00 2996m 1°C 1_6 0cm 0% 6mph 6mph 1029mB
3:00 2487m 1°C 1_4 0cm 0% 4mph 4mph 1029mB
6:00 2348m 0°C 0_2 0cm 0% 2mph 3mph 1030mB
9:00 2846m 0°C 0_1 0cm 0% 1mph 1mph 1030mB
12:00 2686m 7°C 7_4 0cm 0% 4mph 4mph 1029mB
15:00 2464m 7°C 7_5 0cm 0% 5mph 5mph 1029mB
18:00 2611m 7°C 7_1 0cm 2% 1mph 1mph 1030mB
21:00 2993m 1°C 1_3 0cm 2% 3mph 3mph 1033mB
0:00 2412m 0°C 0_3 0cm 2% 3mph 4mph 1033mB
3:00 2470m 0°C 0_2 0cm 1% 2mph 3mph 1033mB
6:00 1985m 0°C 0_1 0cm 1% 1mph 1mph 1034mB
9:00 3033m 0°C 0_2 0cm 6% 2mph 3mph 1034mB
12:00 2966m 7°C 7_4 0cm 11% 4mph 3mph 1033mB
15:00 2919m 7°C 7_4 0cm 10% 4mph 3mph 1032mB
18:00 3179m 7°C 7_1 0cm 5% 1mph 2mph 1032mB
21:00 3131m 2°C 2_4 0cm 0% 4mph 4mph 1033mB
0:00 3042m 1°C 1_2 0cm 0% 2mph 3mph 1033mB
3:00 3029m 1°C 1_1 0cm 0% 1mph 1mph 1032mB
6:00 3039m 1°C 1_4 0cm 0% 4mph 5mph 1032mB
9:00 2824m 2°C 2_6 0cm 1% 6mph 8mph 1034mB
12:00 2501m 7°C 7_6 0cm 1% 6mph 8mph 1034mB
15:00 2401m 7°C 7_7 0cm 18% 7mph 10mph 1033mB
18:00 2081m 7°C 7_7 0cm 9% 7mph 8mph 1035mB
21:00 2076m 0°C 0_7 0cm 0% 7mph 8mph 1035mB
0:00 2172m -1°C -1_7 0cm 0% 7mph 8mph 1035mB
3:00 2396m 0°C 0_7 0cm 0% 7mph 8mph 1033mB
6:00 2730m 0°C 0_6 0cm 1% 6mph 7mph 1032mB
9:00 2853m 1°C 1_4 0cm 0% 4mph 5mph 1031mB
12:00 2929m 10°C 10_3 0cm 0% 3mph 2mph 1029mB
15:00 3003m 10°C 10_3 0cm 16% 3mph 3mph 1028mB
18:00 3157m 10°C 10_2 0cm 18% 2mph 2mph 1028mB
21:00 3215m 3°C 3_4 0cm 2% 4mph 5mph 1028mB
0:00 3220m 3°C 3_4 0cm 1% 4mph 5mph 1028mB
3:00 3255m 3°C 3_4 0cm 0% 4mph 4mph 1026mB
6:00 3300m 3°C 3_4 0cm 0% 4mph 4mph 1026mB
9:00 3333m 3°C 3_1 0cm 0% 1mph 1mph 1025mB
12:00 3296m 12°C 12_4 0cm 0% 4mph 3mph 1024mB
15:00 3265m 12°C 12_4 0cm 0% 4mph 3mph 1023mB
18:00 3304m 12°C 12_1 0cm 1% 1mph 1mph 1024mB
21:00 3222m 4°C 4_4 0cm 8% 4mph 4mph 1025mB
0:00 3148m 3°C 3_3 0cm 11% 3mph 3mph 1025mB
3:00 3081m 3°C 3_2 0cm 10% 2mph 3mph 1024mB
6:00 3056m 2°C 2_3 0cm 6% 3mph 4mph 1024mB
9:00 3084m 2°C 2_3 0cm 1% 3mph 3mph 1024mB
12:00 3118m 11°C 11_5 0cm 1% 5mph 4mph 1023mB
15:00 3067m 11°C 11_5 0cm 3% 5mph 5mph 1021mB
18:00 3056m 11°C 11_3 0cm 1% 3mph 3mph 1022mB
21:00 3057m 3°C 3_4 0cm 0% 4mph 5mph 1023mB
0:00 2992m 2°C 2_4 0cm 0% 4mph 5mph 1022mB
3:00 2861m 1°C 1_6 0cm 0% 6mph 7mph 1022mB
6:00 2789m 1°C 1_5 0cm 0% 5mph 6mph 1022mB
9:00 2788m 1°C 1_1 0cm 1% 1mph 1mph 1022mB
12:00 2660m 9°C 9_3 0cm 29% 3mph 3mph 1022mB
15:00 2625m 9°C 9_2 0cm 75% 2mph 3mph 1021mB
18:00 2538m 9°C 9_2 0cm 80% 2mph 2mph 1022mB
21:00 2482m 2°C 2_3 0cm 87% 3mph 3mph 1023mB
0:00 2441m 1°C 1_3 0cm 93% 3mph 4mph 1023mB
3:00 2367m 0°C 0_4 0cm 88% 4mph 5mph 1022mB
6:00 2130m 0°C 0_5 0cm 87% 5mph 6mph 1022mB
9:00 2339m 0°C 0_3 0cm 86% 3mph 6mph 1022mB
12:00 2491m 8°C 8_2 0cm 71% 2mph 6mph 1021mB
15:00 2551m 8°C 8_5 0cm 73% 5mph 8mph 1019mB
18:00 2465m 8°C 8_7 0cm 50% 7mph 10mph 1021mB
21:00 2417m 1°C 1_9 0cm 34% 9mph 14mph 1021mB
0:00 2367m 1°C 1_10 0cm 37% 10mph 17mph 1019mB
3:00 2343m 2°C 2_10 0cm 48% 10mph 17mph 1018mB
6:00 2297m 2°C 2_10 0cm 41% 10mph 16mph 1018mB
9:00 2294m 2°C 2_11 0cm 75% 11mph 26mph 1020mB
12:00 2323m 6°C 6_11 0cm 81% 11mph 18mph 1020mB
Morning 0mm 0 2598m 2°C 2_7 0cm 79% 7mph 8mph 1022mB
Afternoon 0mm 0 2679m 10°C 10_6 0cm 79% 6mph 11mph 1017mB
Morning 0.119792mm 0.125 2380m 4°C 4_10 1cm 91% 10mph 16mph 1015mB
Afternoon 0.046875mm 0.0625 2171m 5°C 5_12 1cm 76% 12mph 17mph 1012mB
Morning 0.0520833mm 0 2160m 2°C 2_12 1cm 72% 12mph 20mph 1009mB
Afternoon 0.140625mm 0.3125 2161m 5°C 5_13 0cm 52% 13mph 20mph 1010mB
Morning 0.00520833mm 0 1583m -2°C -2_12 0cm 61% 12mph 20mph 1012mB
Afternoon 0mm 0 1667m 1°C 1_12 0cm 77% 12mph 16mph 1016mB
Morning 0mm 0 517m -8°C -8_9 0cm 8% 9mph 14mph 1028mB
Afternoon 0mm 0 1355m -2°C -2_4 0cm 0% 4mph 6mph 1029mB
Morning 0mm 0 779m -7°C -7_3 0cm 2% 3mph 4mph 1035mB
Afternoon 0mm 0 1969m 4°C 4_1 0cm 62% 1mph 3mph 1030mB

16 day outlook at a glance

Forecast issued: 21/02/2019 18:29:46

Chat

Your comments and questions. In a resort? Let us know what it's like!


Characters left 250

For terms and conditions see Readers Comments on the Cookie and privacy policy page.